Tracking 26257 objects as of 4-Oct-2022
HD Live streaming from Space Station
objects crossing your sky now

RADFXSAT-2 (AO-109)

Track RADFXSAT-2 (AO-109) now!
10-day predictions
RADFXSAT-2 (AO-109) is classified as:


NORAD ID: 47311
Int'l Code: 2021-002C
Perigee: 468.2 km
Apogee: 516.2 km
Inclination: 60.7 °
Period: 94.3 minutes
Semi major axis: 6863 km
RCS: Unknown
Launch date: January 17, 2021
Source: United States (US)
Launch site: Pegasus launched from Western Range Air Space (WRAS)

Uplink (MHz): 145.860-145.890
Downlink (MHz): 435.790-435.760
Beacon (MHz): 435.750
Mode: 1k2 BPSK SSB CW FT4
Call sign:
Status: Active

aabbcc
Your satellite tracking list
Your tracking list is empty




NASA's NSSDC Master Catalog

Two Line Element Set (TLE):
1 47311U 21002C   22276.57762238  .00014709  00000-0  55226-3 0  9994
2 47311  60.6856 314.7606 0034906  47.1936 313.2078 15.26908182 94962
Source of the keplerian elements: AFSPC